User: anonymous   Login
Location: Unspecified
(0.0000°N, 0.0000°E)
Time: 12:41:13
(UTC+02:00)
Language:

Meteor PRIRODA - Orbit

View from above orbital plane
View from above orbital plane
View from above satellite
View from above satellite

Ground track
Ground track

The orbit data is extracted from the following two-line orbital elements,

1 12585U 81065A   17206.53945574 +.00000432 +00000-0 +23006-4 0  9993
2 12585 097.4336 185.2971 0013090 265.7453 094.2287 15.20384826962281
Epoch (UTC): 25 July 2017 12:56:48
Eccentricity: 0.0013090
inclination: 97.4336°
perigee height: 495 km
apogee height: 513 km
right ascension of ascending node: 185.2971°
argument of perigee: 265.7453°
revolutions per day: 15.20384826
mean anomaly at epoch: 94.2287°
orbit number at epoch: 96228

The dashed part of the orbit path shows where the satellite is in the earth's shadow,  

DLR